{"data":{"norad_id":69627,"epoch":"2026-09-20T03:14:11.128992Z","epoch_age_seconds":60523,"freshness":"FRESH","line1":"1 69627U 26140AM  26263.13485103  .00001622  00000+0  24169-3 0  9992","line2":"2 69627  51.9028 310.8238 0000383 114.7240 245.3762 14.79931105 15684","mean_motion":14.79931105,"eccentricity":3.83e-5,"inclination_deg":51.9028,"raan_deg":310.8238,"arg_perigee_deg":114.724,"mean_anomaly_deg":245.3762,"bstar":0.00024169,"rev_number":1568,"period_min":97.301826763078,"perigee_km":629.27321713598,"apogee_km":629.8100053176,"semimajor_km":7007.6786112268,"source":"CELESTRAK","updated_at":"2026-09-20T09:00:25.032439Z"}}